Weather History for Mosby, MO

Change the Weather History Date:

Tuesday, January 22, 2013

  Actual Average (KMKC) Record (KMKC)
Temperature  
Mean Temperature 21 °F -  
Max Temperature 28 °F 37 °F 66 °F (2009)
Min Temperature 14 °F 21 °F 3 °F (2003)
Degree Days  
Heating Degree Days 44    
Moisture  
Dew Point 6 °F    
Average Humidity 55    
Maximum Humidity 68    
Minimum Humidity 40    
Precipitation  
Precipitation 0.00 in - - ()
Sea Level Pressure  
Sea Level Pressure 30.35 in    
Wind  
Wind Speed 5 mph (East)    
Max Wind Speed 8 mph    
Max Gust Speed -    
Visibility 10 miles    
Events      
Averages and records for this station are not official NWS values.
T = Trace of Precipitation, MM = Missing Value Source: NWS Daily Summary

Daily Weather History Graph

Daily Weather History Graph

Search for Another Location

Airport:

Trip Planner

Search our weather history database for the weather conditions in past years. The results will help you decide how hot, cold, wet, or windy it might be!

Date:

Astronomy

Jan. 22, 2013 Rise Set
Actual Time 7:31 AM CST 5:26 PM CST
Civil Twilight 7:02 AM CST 5:55 PM CST
Nautical Twilight 6:30 AM CST 6:28 PM CST
Astronomical Twilight 5:58 AM CST 6:59 PM CST
Moon 1:50 PM CST 3:53 AM CST
Length of Visible Light 10h 52m
Length of Day
9h 54m
Waxing Gibbous, 83% of the Moon is Illuminated
Jan 22
Waxing Gibbous
Jan 26
Full
Feb 3
Last Quarter
Feb 10
New
Feb 17
First Quarter

Hourly Weather History & Observations

Time (CST) Temp. Windchill Dew Point Humidity Pressure Visibility Wind Dir Wind Speed Gust Speed Precip Events Conditions
12:15 AM 17.6 °F 7.3 °F 5.0 °F 58% 30.39 in 10.0 mi North 8.1 mph - N/A   Overcast
12:55 AM 17.6 °F 8.2 °F 3.2 °F 53% 30.38 in 10.0 mi North 6.9 mph - N/A   Overcast
1:15 AM 15.8 °F 7.2 °F 5.0 °F 62% 30.37 in 10.0 mi NNE 5.8 mph - N/A   Overcast
1:35 AM 15.8 °F 7.2 °F 5.0 °F 62% 30.38 in 10.0 mi NNE 5.8 mph - N/A   Overcast
1:55 AM 15.8 °F 10.2 °F 5.0 °F 62% 30.38 in 10.0 mi North 3.5 mph - N/A   Overcast
2:15 AM 15.8 °F 7.2 °F 5.0 °F 62% 30.38 in 10.0 mi North 5.8 mph - N/A   Mostly Cloudy
2:35 AM 15.8 °F 7.2 °F 5.0 °F 62% 30.40 in 10.0 mi North 5.8 mph - N/A   Mostly Cloudy
2:55 AM 15.8 °F 8.6 °F 5.0 °F 62% 30.40 in 10.0 mi NNE 4.6 mph - N/A   Overcast
3:15 AM 15.8 °F 10.2 °F 5.0 °F 62% 30.40 in 10.0 mi NNE 3.5 mph - N/A   Overcast
3:35 AM 15.8 °F 8.6 °F 5.0 °F 62% 30.39 in 10.0 mi NNE 4.6 mph - N/A   Overcast
3:55 AM 15.8 °F 8.6 °F 5.0 °F 62% 30.37 in 10.0 mi ENE 4.6 mph - N/A   Overcast
4:15 AM 15.8 °F 8.6 °F 5.0 °F 62% 30.38 in 10.0 mi NNE 4.6 mph - N/A   Unknown
4:35 AM 15.8 °F 7.2 °F 5.0 °F 62% 30.39 in 10.0 mi NE 5.8 mph - N/A   Unknown
4:55 AM 15.8 °F 10.2 °F 5.0 °F 62% 30.38 in 10.0 mi ENE 3.5 mph - N/A   Unknown
5:15 AM 14.0 °F 8.2 °F 5.0 °F 67% 30.38 in 10.0 mi East 3.5 mph - N/A   Unknown
5:35 AM 14.0 °F 8.2 °F 3.2 °F 62% 30.37 in 10.0 mi East 3.5 mph - N/A   Clear
5:55 AM 14.0 °F - 3.2 °F 62% 30.37 in 10.0 mi Calm Calm - N/A   Clear
6:15 AM 14.0 °F - 5.0 °F 67% 30.38 in 10.0 mi Calm Calm - N/A   Clear
6:35 AM 14.0 °F - 5.0 °F 67% 30.39 in 10.0 mi Calm Calm - N/A   Clear
6:55 AM 14.0 °F - 5.0 °F 67% 30.38 in 10.0 mi Calm Calm - N/A   Scattered Clouds
7:15 AM 14.0 °F 8.2 °F 3.2 °F 62% 30.38 in 10.0 mi East 3.5 mph - N/A   Scattered Clouds
7:35 AM 14.0 °F 8.2 °F 3.2 °F 62% 30.39 in 10.0 mi ENE 3.5 mph - N/A   Clear
7:55 AM 15.8 °F 10.2 °F 3.2 °F 58% 30.39 in 10.0 mi ESE 3.5 mph - N/A   Clear
8:15 AM 15.8 °F 8.6 °F 1.4 °F 53% 30.40 in 10.0 mi East 4.6 mph - N/A   Clear
8:35 AM 15.8 °F 7.2 °F 1.4 °F 53% 30.40 in 10.0 mi East 5.8 mph - N/A   Clear
8:55 AM 15.8 °F 8.6 °F 1.4 °F 53% 30.41 in 10.0 mi ENE 4.6 mph - N/A   Clear
9:15 AM 17.6 °F 7.3 °F 1.4 °F 49% 30.41 in 10.0 mi ENE 8.1 mph - N/A   Clear
9:35 AM 17.6 °F 10.7 °F 1.4 °F 49% 30.42 in 10.0 mi ESE 4.6 mph - N/A   Clear
9:55 AM 17.6 °F 10.7 °F 1.4 °F 49% 30.43 in 10.0 mi East 4.6 mph - N/A   Clear
10:15 AM 17.6 °F 9.3 °F 3.2 °F 53% 30.43 in 10.0 mi East 5.8 mph - N/A   Scattered Clouds
10:55 AM 19.4 °F 12.8 °F 3.2 °F 49% 30.44 in 10.0 mi ENE 4.6 mph - N/A   Clear
11:15 AM 19.4 °F 11.5 °F 3.2 °F 49% 30.43 in 10.0 mi East 5.8 mph - N/A   Clear
11:35 AM 21.2 °F 12.6 °F 3.2 °F 46% 30.42 in 10.0 mi ESE 6.9 mph - N/A   Clear
11:55 AM 21.2 °F 16.4 °F 3.2 °F 46% 30.40 in 10.0 mi East 3.5 mph - N/A   Clear
12:15 PM 21.2 °F 13.6 °F 3.2 °F 46% 30.39 in 10.0 mi ESE 5.8 mph - N/A   Clear
12:35 PM 23.0 °F 18.4 °F 3.2 °F 43% 30.37 in 10.0 mi SE 3.5 mph - N/A   Clear
12:55 PM 23.0 °F 18.4 °F 3.2 °F 43% 30.36 in 10.0 mi SSE 3.5 mph - N/A   Clear
1:15 PM 24.8 °F 17.9 °F 5.0 °F 43% 30.34 in 10.0 mi SE 5.8 mph - N/A   Clear
1:35 PM 24.8 °F 16.9 °F 5.0 °F 43% 30.34 in 10.0 mi SE 6.9 mph - N/A   Clear
2:15 PM 26.6 °F 19.1 °F 6.8 °F 43% 30.32 in 10.0 mi East 6.9 mph - N/A   Clear
2:35 PM 26.6 °F 20.0 °F 6.8 °F 43% 30.32 in 10.0 mi East 5.8 mph - N/A   Clear
2:55 PM 26.6 °F 20.0 °F 6.8 °F 43% 30.31 in 10.0 mi ESE 5.8 mph - N/A   Clear
3:15 PM 28.4 °F 20.4 °F 6.8 °F 40% 30.30 in 10.0 mi East 8.1 mph - N/A   Clear
3:35 PM 28.4 °F 20.4 °F 6.8 °F 40% 30.29 in 10.0 mi ESE 8.1 mph - N/A   Clear
3:55 PM 28.4 °F 22.2 °F 6.8 °F 40% 30.29 in 10.0 mi ESE 5.8 mph - N/A   Clear
4:15 PM 28.4 °F 21.2 °F 8.6 °F 43% 30.29 in 10.0 mi ESE 6.9 mph - N/A   Clear
4:35 PM 28.4 °F 22.2 °F 6.8 °F 40% 30.29 in 10.0 mi SE 5.8 mph - N/A   Clear
4:55 PM 26.6 °F 19.1 °F 8.6 °F 47% 30.29 in 10.0 mi East 6.9 mph - N/A   Clear
5:15 PM 26.6 °F 21.2 °F 8.6 °F 47% 30.30 in 10.0 mi East 4.6 mph - N/A   Clear
5:35 PM 26.6 °F 22.6 °F 8.6 °F 47% 30.30 in 10.0 mi ESE 3.5 mph - N/A   Clear
5:55 PM 26.6 °F 21.2 °F 8.6 °F 47% 30.30 in 10.0 mi East 4.6 mph - N/A   Clear
6:15 PM 24.8 °F 20.5 °F 8.6 °F 50% 30.30 in 10.0 mi East 3.5 mph - N/A   Clear
6:35 PM 23.0 °F 17.0 °F 10.4 °F 59% 30.30 in 10.0 mi East 4.6 mph - N/A   Clear
6:55 PM 23.0 °F 17.0 °F 10.4 °F 59% 30.31 in 10.0 mi East 4.6 mph - N/A   Clear
7:15 PM 23.0 °F 18.4 °F 10.4 °F 59% 30.31 in 10.0 mi East 3.5 mph - N/A   Unknown
7:35 PM 23.0 °F 18.4 °F 8.6 °F 54% 30.31 in 10.0 mi East 3.5 mph - N/A   Clear
7:55 PM 23.0 °F 18.4 °F 8.6 °F 54% 30.31 in 10.0 mi East 3.5 mph - N/A   Clear
8:15 PM 23.0 °F - 8.6 °F 54% 30.31 in 10.0 mi Calm Calm - N/A   Clear
8:35 PM 21.2 °F - 8.6 °F 58% 30.30 in 10.0 mi Calm Calm - N/A   Clear
8:55 PM 21.2 °F - 8.6 °F 58% 30.30 in 10.0 mi Calm Calm - N/A   Clear
9:15 PM 21.2 °F - 8.6 °F 58% 30.30 in 10.0 mi Calm Calm - N/A   Clear
9:35 PM 21.2 °F - 8.6 °F 58% 30.30 in 10.0 mi Calm Calm - N/A   Clear
9:55 PM 21.2 °F - 8.6 °F 58% 30.30 in 10.0 mi Calm Calm - N/A   Clear
10:15 PM 19.4 °F - 10.4 °F 68% 30.31 in 10.0 mi Calm Calm - N/A   Clear
10:35 PM 19.4 °F - 10.4 °F 68% 30.31 in 10.0 mi Calm Calm - N/A   Clear
10:55 PM 19.4 °F - 10.4 °F 68% 30.30 in 10.0 mi Calm Calm - N/A   Clear
11:15 PM 19.4 °F - 10.4 °F 68% 30.31 in 10.0 mi Calm Calm - N/A   Clear
11:35 PM 19.4 °F - 10.4 °F 68% 30.30 in 10.0 mi Calm Calm - N/A   Clear
11:55 PM 19.4 °F 14.3 °F 10.4 °F 68% 30.29 in 10.0 mi East 3.5 mph - N/A   Clear